Alamor, Romania

06:45 AM EEST am 26. Juni 2017 (GMT +0300)
Alamor

Wetter Verlauf für 15260 - Juni, 2017

Change the Weather History Date:

Montag, Juni 19, 2017

  Actual Average Record
Temperature  
mittlereTemperatur 66 °F -  
Max. Temperatur 77 °F 76 °F - ()
Min.Temperatur 55 °F 53 °F - ()
Cooling Degree Days 1    
Growing Degree Days 16 (Base 50)    
Moisture  
Taupunkt 52 °F    
Average Humidity 63    
Maximum Humidity 98    
Minimum Humidity 22    
Niederschlag  
Niederschlag 0.00 inch 0.12 inch - ()
Luftdruck in Meereshöhe  
Luftdruck in Meereshöhe 30.12 inch    
Wind  
Windgeschwindigkeit 5 mph ()    
Max. Windgeschwindigkeit 10 mph    
Max Gust Speed -    
Sichtweite 6.8 Meilen    
Ereignisse Regen    
T = Trace of Precipitation, MM = Missing Value Source: Averaged Metar Reports

Daily Weather History Graph

Daily Weather History Graph

Search for Another Location

Airport or City:

Trip Planner

Search our weather history database for the weather conditions in past years. The results will help you decide how hot, cold, wet, or windy it might be!

Date:

Astronomie

Jun. 19, 2017 Aufgang Untergang
Genaue Zeit 05:33 EEST 21:16 EEST
Bürgerliche Dämmerung 04:54 EEST 21:54 EEST
Nautische Dämmerung 04:03 EEST 22:46 EEST
Astronomische Dämmerung 02:51 EEST 23:57 EEST
Mond 02:30 EEST (6/19) 15:29 EEST (6/19)
Länge des sichtbaren Lichts 17h 00m
Tageslänge
15h 43m
Letztes Viertel, 30% of the Moon is Illuminated
Jun 19
Letztes Viertel
Jun 24
Neu
Jul 1
Erstes Viertel
Jul 9
Vollmond
Jul 16
Letztes Viertel

Hourly Weather History & Observations

Zeit (EEST) Temp. Taupunkt Feuchtigkeit Druck Sichtweite Wind Dir Windgeschwindigkeit Böengeschwindigkeit Precip Ereignisse Wetterzustand
12:00 AM 58 °F 57 °F 95% 30.09 inch 6 mi West-Nordwest 4.5 mph - -   Bedeckt
12:00 AM 59.0 °F 55.4 °F 88% 30.09 inch 6.2 mi Ruhig Ruhig - N/A   Wolkig
12:30 AM 59.0 °F 55.4 °F 88% 30.09 inch 6.2 mi Südwest 3.5 mph - N/A   Wolkig
1:00 AM 58 °F 57 °F 94% 30.10 inch 6 mi Südwest 4.5 mph - -   Bedeckt
1:00 AM 59.0 °F 55.4 °F 88% 30.09 inch 6.2 mi West 6.9 mph - N/A   Wolkig
1:30 AM 59.0 °F 55.4 °F 88% 30.09 inch 6.2 mi Nordwest 3.5 mph - N/A   Wolkig
2:00 AM 58 °F 57 °F 94% 30.11 inch 6 mi West-Nordwest 2.2 mph - -   Bedeckt
2:30 AM 59.0 °F 55.4 °F 88% 30.09 inch 6.2 mi Nordwest 3.5 mph - N/A   Wolkig
3:00 AM 58 °F 56 °F 92% 30.11 inch 6 mi Nordwest 2.2 mph - -   Teils Wolkig
3:00 AM 57.2 °F 55.4 °F 94% 30.09 inch 6.2 mi Nordwest 3.5 mph - N/A   Teils Wolkig
3:30 AM 57.2 °F 55.4 °F 94% 30.12 inch 6.2 mi West-Nordwest 3.5 mph - N/A   Wolkig
4:00 AM 56 °F 56 °F 98% 30.12 inch 6 mi West-Südwest 2.2 mph - -   Teils Wolkig
4:00 AM 57.2 °F 55.4 °F 94% 30.12 inch 6.2 mi West 5.8 mph - N/A   Wolkig
4:30 AM 57.2 °F 53.6 °F 88% 30.12 inch 6.2 mi West-Südwest 4.6 mph - N/A   Wolkig
5:00 AM 56 °F 55 °F 95% 30.12 inch 6 mi West-Südwest 4.5 mph - -   Teils Wolkig
5:00 AM 57.2 °F 53.6 °F 88% 30.12 inch 6.2 mi West 4.6 mph - N/A   Wolkig
5:30 AM 57.2 °F 53.6 °F 88% 30.12 inch 6.2 mi Nordwest 5.8 mph - N/A   Wolkig
6:00 AM 57 °F 54 °F 88% 30.13 inch 12 mi Nordwest 4.5 mph - -   Teils Wolkig
6:00 AM 57.2 °F 53.6 °F 88% 30.12 inch 6.2 mi West-Nordwest 5.8 mph - N/A   Wolkig
6:30 AM 57.2 °F 53.6 °F 88% 30.12 inch 6.2 mi West 5.8 mph - N/A   Wolkig
7:00 AM 57 °F 54 °F 88% 30.14 inch 12 mi West-Südwest 6.7 mph - -   Teils Wolkig
7:00 AM 59.0 °F 53.6 °F 82% 30.15 inch 6.2 mi West 8.1 mph - N/A   Wolkig
7:30 AM 59.0 °F 53.6 °F 82% 30.15 inch 6.2 mi West-Nordwest 4.6 mph - N/A   Wolkig
8:00 AM 59 °F 55 °F 82% 30.15 inch 12 mi West-Nordwest 4.5 mph - -   Bedeckt
8:00 AM 60.8 °F 53.6 °F 77% 30.15 inch 6.2 mi West 4.6 mph - N/A   Bedeckt
9:00 AM 60 °F 56 °F 81% 30.15 inch 12 mi West-Südwest 6.7 mph - -   Teils Wolkig
9:00 AM 62.6 °F 55.4 °F 77% 30.15 inch 6.2 mi West 6.9 mph - N/A   Teils Wolkig
9:30 AM 64.4 °F 55.4 °F 73% 30.15 inch 6.2 mi West 5.8 mph - N/A   Teils Wolkig
10:00 AM 66 °F 57 °F 66% 30.14 inch 31 mi West-Südwest 6.7 mph - -   Teils Wolkig
10:00 AM 68.0 °F 51.8 °F 56% 30.15 inch 6.2 mi West-Nordwest 8.1 mph - N/A   Teils Wolkig
10:30 AM 68.0 °F 51.8 °F 56% 30.15 inch 6.2 mi Nordwest 5.8 mph - N/A   Teils Wolkig
11:00 AM 69 °F 54 °F 50% 30.14 inch 31 mi Nord-Nordwest 4.5 mph - -   Teils Wolkig
11:00 AM 68.0 °F 51.8 °F 56% 30.15 inch 6.2 mi West-Nordwest 6.9 mph - N/A   Teils Wolkig
11:30 AM 69.8 °F 53.6 °F 56% 30.15 inch 6.2 mi Nord-Nordwest 6.9 mph - N/A   Teils Wolkig
12:00 PM 70 °F 55 °F 50% 30.13 inch 31 mi Nordwest 4.5 mph - -   Teils Wolkig
12:00 PM 69.8 °F 51.8 °F 53% 30.15 inch 6.2 mi Nord-Nordwest 5.8 mph - N/A   Teils Wolkig
12:30 PM 71.6 °F 53.6 °F 53% 30.15 inch 6.2 mi Nord 6.9 mph - N/A   Teils Wolkig
1:00 PM 72 °F 55 °F 45% 30.13 inch 31 mi Nord-Nordwest 6.7 mph - -   Teils Wolkig
1:00 PM 71.6 °F 50.0 °F 46% 30.15 inch 6.2 mi Nord 8.1 mph - N/A   Teils Wolkig
1:30 PM 73.4 °F 50.0 °F 44% 30.15 inch 6.2 mi Nordost 9.2 mph - N/A   Teils Wolkig
2:00 PM 73 °F 50 °F 33% 30.10 inch 31 mi Nord 6.7 mph - -   Teils Wolkig
2:00 PM 73.4 °F 50.0 °F 44% 30.15 inch 6.2 mi Nordost 9.2 mph - N/A   Teils Wolkig
2:30 PM 73.4 °F 50.0 °F 44% 30.15 inch 6.2 mi Nord-Nordwest 8.1 mph - N/A   Wolkig
3:00 PM 75 °F 51 °F 33% 30.09 inch 31 mi Nord 6.7 mph - -   Teils Wolkig
3:00 PM 73.4 °F 48.2 °F 41% 30.12 inch 6.2 mi Nord 6.9 mph - N/A   Teils Wolkig
3:30 PM 71.6 °F 48.2 °F 43% 30.12 inch 6.2 mi Nord-Nordwest 6.9 mph - N/A   Wolkig
4:00 PM 73 °F 49 °F 32% 30.09 inch 31 mi Nord-Nordwest 4.5 mph - -   Teils Wolkig
4:00 PM 75.2 °F 48.2 °F 38% 30.12 inch 6.2 mi Nord-Nordwest 6.9 mph - N/A   Teils Wolkig
5:00 PM 76 °F 49 °F 28% 30.07 inch 31 mi Nord 8.9 mph - -   Teils Wolkig
5:00 PM 75.2 °F 44.6 °F 34% 30.12 inch 6.2 mi Nordwest 10.4 mph - N/A   Teils Wolkig
5:30 PM 75.2 °F 44.6 °F 34% 30.12 inch 6.2 mi Nord 6.9 mph - N/A   Teils Wolkig
6:00 PM 76 °F 47 °F 25% 30.06 inch 31 mi Nord-Nordwest 8.9 mph - -   Teils Wolkig
6:00 PM 75.2 °F 46.4 °F 36% 30.09 inch 6.2 mi Nord 8.1 mph - N/A   Teils Wolkig
6:30 PM 75.2 °F 44.6 °F 34% 30.09 inch 6.2 mi Nordwest 10.4 mph - N/A   Teils Wolkig
7:00 PM 77 °F 45 °F 22% 30.05 inch 31 mi Nord-Nordwest 6.7 mph - -   Teils Wolkig
7:00 PM 75.2 °F 46.4 °F 36% 30.09 inch 6.2 mi Nordwest 6.9 mph - N/A   Teils Wolkig
8:00 PM 76 °F 47 °F 26% 30.05 inch 31 mi Nordwest 6.7 mph - -   Teils Wolkig
8:00 PM 73.4 °F 46.4 °F 38% 30.09 inch - Nordwest 6.9 mph - N/A   Heiter
9:00 PM 71 °F 50 °F 36% 30.06 inch 31 mi West 4.5 mph - -   Wolkig
9:30 PM 66.2 °F 51.8 °F 60% 30.09 inch 6.2 mi West 8.1 mph - N/A Regen Leichte Regenschauer
10:00 PM 66 °F 54 °F 55% 30.08 inch 12 mi West 6.7 mph - -   Wolkig
10:00 PM 66.2 °F 51.8 °F 60% 30.12 inch 6.2 mi West 9.2 mph - N/A   Wolkig
10:30 PM 66.2 °F 51.8 °F 60% 30.12 inch 6.2 mi West 9.2 mph - N/A   Teils Wolkig
11:00 PM 65 °F 53 °F 55% 30.10 inch 12 mi West-Südwest 6.7 mph - -   Wolkig
11:00 PM 62.6 °F 51.8 °F 68% 30.12 inch 6.2 mi West 9.2 mph - N/A   Teils Wolkig
11:30 PM 62.6 °F 53.6 °F 72% 30.12 inch - West 10.4 mph - N/A   Heiter